Location: ????????
(55.7667°N, 37.4833°E)
Time: 07:36:00
(UTC+00:00)

In-Cosmos 22 - Pass Details

Date: 19 May 2025
Orbit: 783 x 875 km, 81.2° (Epoch: 23 June)

Event Time Altitude Azimuth Distance (km) Brightness Sun altitude
Exits shadow 21:49:30 20° 174° (S) 1,903 5.4 -14.1°
Maximum altitude 21:53:29 64° 98° (E) 968 4.5 -14.0°
Drops below altitude 10° 21:59:12 10° 19° (NNE) 2,541 8.1 -13.9°
Sets 22:01:40 0° 16° (NNE) 3,483 9.3 -13.9°
